[[{"header":{"parameterUnit":"m.s-1","parameterCategory":1,"la1":30.2991,"la2":30.254,"lo1":-89.0895,"lo2":-89.0444,"dy":0.0017,"dx":0.0017,"nx":28,"ny":28,"refTime":"2024-05-29T21:00:00:Z","depth":0,"parameterNumber":2,"parameterNumberName":"U-component_of_WINDS"},"data":[0,0,0,0,0,0,0,0,0,0,0,0,0,0,0,0,0,0,0,0,0,0,0,0,0,0,0,0,0,0,0,0,0,0,0,0,0,0,0,0,0,0,0,0,0,0,0,0,0,0,0,0,0,0,0,0,0,0,-3.9035,-3.9038,0,-3.9282,-3.9285,-3.9288,-3.9357,-3.9356,-3.9355,-3.9353,-3.9607,-3.9615,-3.9623,0,0,0,0,0,0,0,0,0,0,0,0,0,-3.8626,-3.8633,-3.9035,-3.9038,-3.9041,-3.9282,-3.9285,-3.9288,-3.9358,-3.9356,-3.9354,-3.9353,-3.9605,-3.9614,-3.9624,0,0,0,0,0,0,0,0,0,0,0,0,0,-3.8831,-3.8635,-3.9034,-3.9105,-3.9113,-3.9281,-3.9285,-3.9289,-3.9358,-3.9356,-3.9354,-3.9352,-3.9601,-3.9613,-3.9625,-3.9741,0,0,-3.9662,-3.9667,0,0,0,0,0,0,0,0,-3.8819,-3.8846,-3.9091,-3.91,-3.911,-3.9287,-3.9234,-3.9441,-3.9358,-3.9265,-3.9353,-3.9351,-3.9502,-3.9522,-3.9573,-3.9753,-3.9764,-3.9663,-3.967,-3.9676,-3.9679,0,0,0,0,0,0,0,-3.8805,-3.8836,-3.9133,-3.9095,-3.9106,-3.9125,-3.9151,-3.9273,-3.9392,-3.9273,-3.9279,-3.9307,-3.9507,-3.9561,-3.958,-3.9767,-3.9663,-3.9673,-3.9681,-3.9686,-4.0055,-4.0058,0,0,0,0,0,0,-3.8778,-3.8823,-3.9125,-3.914,-3.8957,-3.9134,-3.9164,-3.9232,-3.9391,-3.9413,-3.9308,-3.9309,-3.9542,-3.9566,-3.9589,-3.9735,-3.9675,-3.9687,-3.9694,-4.0053,-4.0056,-4.0059,0,0,0,0,0,0,-3.8769,-3.8805,-3.9115,-3.8984,-3.9024,-3.9143,-3.9219,-3.9238,-3.9292,-3.9418,-3.944,-3.9342,-3.9541,-3.9572,-3.9703,-3.9744,-3.9692,-3.9703,-4.005,-4.0054,-4.0057,-4.0027,0,0,0,0,0,0,-3.8757,-3.8801,-3.8845,-3.8984,-3.9031,-3.9223,-3.9222,-3.9244,-3.9313,-3.9316,-3.9455,-3.9476,-3.9542,-3.9684,-3.9715,-3.976,-3.9713,-4.0046,-4.0051,-4.0056,-4.0024,-4.0029,-4.0033,0,0,0,0,0,-3.8742,-3.8827,-3.8847,-3.8883,-3.9089,-3.9226,-3.9253,-3.9326,-3.9316,-3.9362,-3.9443,-3.9472,-3.9736,-3.9697,-3.9732,-3.9781,-4.0044,-4.005,-4.0056,-4.0022,-4.0028,-4.0033,0,0,0,0,0,0,-3.869,-3.8846,-3.887,-3.9002,-3.91,-3.9237,-3.9297,-3.933,-3.9433,-3.9432,-3.952,-3.9551,-3.9675,-3.9742,-3.9696,-3.9903,-3.9891,-3.9904,-3.9853,-3.986,-3.9864,-3.9844,-3.9723,0,0,0,0,0,-3.8694,-3.8792,-3.8923,-3.9027,-3.9075,-3.9177,-3.924,-3.9288,-3.9393,-3.9435,-3.9526,-3.9627,-3.9733,-3.9801,-3.9905,-4.0036,-4.0067,-4.0087,-4.0091,-4.0094,-4.0104,-4.0178,-4.0188,-4.0078,-4.0078,-4.0077,0,0,-3.8703,-3.88,-3.8856,-3.9019,-3.91,-3.92,-3.9212,-3.9316,-3.9391,-3.9451,-3.9579,-3.965,-3.9769,-3.99,-3.9962,-3.9959,-4.0142,-4.0102,-4.0103,-4.0111,-4.0185,-4.0195,-4.0205,-4.0082,-4.0081,-4.008,0,0,-3.8769,-3.8853,-3.8948,-3.903,-3.9154,-3.9222,-3.9245,-3.9378,-3.9426,-3.9557,-3.9604,-3.9695,-3.9876,-3.9959,-4.0024,-4.0124,-4.0155,-4.0156,-4.0177,-4.0249,-4.0257,-4.0266,-4.03,-4.0312,-4.0166,-4.0166,-4.0166,0,-3.8764,-3.8915,-3.8993,-3.9096,-3.9166,-3.9226,-3.9323,-3.9399,-3.955,-3.9598,-3.9593,-3.9821,-3.9906,-4.0057,-4.0081,-4.0133,-4.0162,-4.0139,-4.025,-4.0259,-4.0268,-4.0302,-4.0315,-4.0165,-4.0165,-4.0165,-4.0165,0,-3.8903,-3.9007,-3.907,-3.9214,-3.9291,-3.9391,-3.9485,-3.9554,-3.9597,-3.9666,-3.9798,-3.9902,-4.0029,-4.0069,-4.0112,-4.0227,-4.0221,-4.0232,-4.0222,-4.0276,-4.0309,-4.0323,-4.0164,-4.0164,-4.0165,-4.0165,0,0,-3.8941,-3.9128,-3.9149,-3.9215,-3.9357,-3.9439,-3.9543,-3.9666,-3.9723,-3.9827,-3.9915,-4.0068,-4.0079,-4.0154,-4.0207,-4.027,-4.0342,-4.0274,-4.0278,-4.0281,-4.0475,-4.0464,-4.0477,-4.0364,-4.0367,-4.0369,-4.0464,0,-3.9023,-3.9208,-3.9282,-3.9432,-3.953,-3.9589,-3.9679,-3.9776,-3.9844,-3.9937,-4.0013,-4.0119,-4.0126,-4.0172,-4.0237,-4.0319,-4.0381,-4.0314,-4.0447,-4.045,-4.0412,-4.0495,-4.0484,-4.0568,-4.0478,-4.048,-4.0482,0,-3.9144,-3.9247,-3.9407,-3.9537,-3.9581,-3.966,-3.9779,-3.9868,-3.998,-4.0025,-4.0109,-4.0159,-4.027,-4.0255,-4.0409,-4.0361,-4.0421,-4.047,-4.0475,-4.0488,-4.0467,-4.0509,-4.0597,-4.0609,-4.0504,-4.0502,-4.05,0,-3.9153,-3.9333,-3.9452,-3.9507,-3.9662,-3.9716,-3.9784,-3.9894,-3.9964,-4.0069,-4.0115,-4.0233,-4.0296,-4.0386,-4.0467,-4.0448,-4.0614,-4.0605,-4.0655,-4.0652,-4.0685,-4.0681,-4.0781,-4.0726,-4.0726,-4.0726,-4.0726,0,-3.9237,-3.9332,-3.9458,-3.9531,-3.9639,-3.9725,-3.983,-3.9902,-4.0,-4.0088,-4.0148,-4.023,-4.0333,-4.0428,-4.0493,-4.061,-4.0639,-4.0679,-4.0695,-4.0673,-4.0667,-4.0711,-4.0706,-4.0729,-4.0729,-4.0728,-4.0727,0,-3.9264,-3.9353,-3.9486,-3.9623,-3.9659,-3.9733,-3.985,-3.9924,-3.9995,-4.0106,-4.0138,-4.025,-4.0366,-4.0456,-4.0607,-4.065,-4.0774,-4.0793,-4.0736,-4.0743,-4.0787,-4.0781,-4.0917,-4.0939,-4.0871,-4.0871,-4.0872,0,-3.9311,-3.9385,-3.9529,-3.9593,-3.9659,-3.976,-3.9832,-3.992,-3.9992,-4.0126,-4.0184,-4.0304,-4.0404,-4.0586,-4.0682,-4.0798,-4.0818,-4.0858,-4.0836,-4.0811,-4.0817,-4.081,-4.0818,-4.0859,-4.086,-4.086,-4.086,0,-3.9383,-3.9423,-3.9524,-3.964,-3.9723,-3.9819,-3.9917,-3.9965,-4.0072,-4.015,-4.0268,-4.0346,-4.05,-4.0618,-4.0745,-4.0816,-4.0856,-4.0867,-4.0884,-4.0861,-4.0824,-4.0844,-4.0741,-4.0863,-4.0862,-4.0862,-4.0862,-4.0862,-3.9421,-3.9489,-3.9602,-3.9712,-3.9794,-3.9884,-3.996,-4.0041,-4.0141,-4.0272,-4.0319,-4.0441,-4.0553,-4.0726,-4.0799,-4.0896,-4.0898,-4.0923,-4.093,-4.0934,-4.0931,-4.0811,-4.092,-4.092,-4.092,-4.092,-4.092,0,-3.9495,-3.957,-3.9671,-3.9805,-3.9891,-3.9922,-4.0032,-4.0103,-4.0209,-4.0309,-4.0407,-4.0543,-4.0659,-4.0764,-4.0885,-4.0943,-4.0964,-4.0972,-4.0967,-4.0983,-4.0923,-4.0895,-4.0952,-4.0952,-4.0952,-4.0952,-4.0952,-4.0952,-3.9543,-3.9661,-3.9715,-3.9874,-3.995,-4.0069,-4.0129,-4.0212,-4.0293,-4.0442,-4.0538,-4.0606,-4.071,-4.0839,-4.0946,-4.0975,-4.1016,-4.1018,-4.105,-4.0991,-4.0987,-4.0983,-4.0957,-4.1026,-4.1026,-4.1102,-4.1103,-4.1103]},{"header":{"parameterUnit":"m.s-1","parameterCategory":1,"la1":30.2991,"la2":30.254,"lo1":-89.0895,"lo2":-89.0444,"dy":0.0017,"dx":0.0017,"nx":28,"ny":28,"refTime":"2024-05-29T21:00:00:Z","depth":0,"parameterNumber":3,"parameterNumberName":"V-component_of_WINDS"},"data":[0,0,0,0,0,0,0,0,0,0,0,0,0,0,0,0,0,0,0,0,0,0,0,0,0,0,0,0,0,0,0,0,0,0,0,0,0,0,0,0,0,0,0,0,0,0,0,0,0,0,0,0,0,0,0,0,0,0,2.9487,2.9488,0,2.9544,2.9544,2.9545,2.9511,2.951,2.9508,2.9507,2.9559,2.9562,2.9565,0,0,0,0,0,0,0,0,0,0,0,0,0,2.9347,2.935,2.9487,2.9488,2.9489,2.9544,2.9544,2.9545,2.9512,2.951,2.9508,2.9506,2.9558,2.9561,2.9565,0,0,0,0,0,0,0,0,0,0,0,0,0,2.9406,2.9351,2.9487,2.9479,2.9479,2.9543,2.9544,2.9545,2.9512,2.951,2.9507,2.9505,2.9557,2.9561,2.9565,2.964,0,0,2.9578,2.958,0,0,0,0,0,0,0,0,2.9403,2.9411,2.9479,2.9479,2.9479,2.9518,2.9514,2.9577,2.9513,2.9499,2.9507,2.9504,2.9547,2.9552,2.9568,2.9642,2.9644,2.9579,2.9581,2.9583,2.9585,0,0,0,0,0,0,0,2.9399,2.9409,2.9509,2.948,2.948,2.9471,2.9477,2.9526,2.9536,2.95,2.9498,2.9505,2.9546,2.9563,2.9569,2.9645,2.9579,2.9583,2.9585,2.9587,2.9785,2.9787,0,0,0,0,0,0,2.9396,2.9405,2.9507,2.9511,2.9435,2.9476,2.9482,2.9508,2.9535,2.9537,2.9507,2.9504,2.9557,2.9564,2.957,2.9659,2.9583,2.9587,2.959,2.9782,2.9786,2.9788,0,0,0,0,0,0,2.9393,2.9405,2.9505,2.9458,2.947,2.9481,2.951,2.951,2.9527,2.9541,2.9542,2.9523,2.9556,2.9564,2.9623,2.966,2.9589,2.9593,2.9779,2.9783,2.9787,2.9837,0,0,0,0,0,0,2.9389,2.9404,2.9433,2.9459,2.9472,2.9558,2.9512,2.9513,2.9536,2.9531,2.9556,2.9557,2.9554,2.9617,2.9628,2.9665,2.9597,2.9776,2.9781,2.9786,2.9832,2.9842,2.9851,0,0,0,0,0,2.9384,2.9443,2.9435,2.9447,2.9509,2.956,2.9568,2.9565,2.9539,2.9567,2.9576,2.9556,2.9656,2.9623,2.9635,2.9674,2.9773,2.9779,2.9785,2.9828,2.984,2.9851,0,0,0,0,0,0,2.9419,2.9446,2.9437,2.9507,2.9532,2.9555,2.959,2.9578,2.961,2.9604,2.9598,2.9604,2.9666,2.9676,2.964,2.9748,2.971,2.9719,2.9738,2.975,2.976,2.9754,2.96,0,0,0,0,0,2.9435,2.9476,2.9498,2.9557,2.9571,2.9579,2.9601,2.9597,2.9622,2.9632,2.9645,2.9669,2.9705,2.9729,2.9763,2.9835,2.9839,2.9868,2.9878,2.9885,2.9892,2.9931,2.9943,2.9808,2.9808,2.9808,0,0,2.9467,2.9488,2.9514,2.9565,2.9583,2.9625,2.9587,2.9632,2.9663,2.9638,2.9695,2.9706,2.9732,2.9798,2.9828,2.9809,2.9931,2.9893,2.9899,2.9901,2.9938,2.9951,2.9962,2.9812,2.9812,2.9811,0,0,2.9548,2.9568,2.962,2.9642,2.9672,2.9678,2.9691,2.9717,2.9724,2.9782,2.9765,2.9801,2.9864,2.9883,2.9901,2.9995,2.9977,3.0006,3.0054,3.0092,3.0103,3.0112,3.0144,3.0156,3.0013,3.0013,3.0014,0,2.9584,2.9647,2.9648,2.9695,2.9718,2.9702,2.9754,2.9774,2.9813,2.9829,2.9808,2.9889,2.9905,2.9975,2.9999,3.0015,3.0028,3.0001,3.0102,3.0111,3.012,3.015,3.0162,3.0017,3.0016,3.0016,3.0016,0,2.9689,2.9734,2.9772,2.9814,2.9842,2.9891,2.9898,2.9926,2.9922,2.993,2.9989,3.001,3.0048,3.0066,3.006,3.0136,3.0123,3.0103,3.0063,3.0136,3.0164,3.0176,3.0021,3.002,3.0019,3.0018,0,0,2.9787,2.9833,2.9847,2.9866,2.9901,2.9935,2.9985,3.0025,3.0049,3.0078,3.0118,3.0174,3.0157,3.0177,3.0175,3.0209,3.0281,3.0184,3.0184,3.0199,3.0365,3.0378,3.0392,3.0272,3.0274,3.0276,3.0362,0,2.9869,2.9957,2.9961,3.0041,3.0082,3.0069,3.0113,3.0138,3.0148,3.0184,3.0194,3.0234,3.0208,3.0221,3.0254,3.0265,3.0313,3.0259,3.0307,3.0308,3.0297,3.0407,3.042,3.05,3.0373,3.0375,3.0376,0,2.9974,3.001,3.0094,3.0126,3.0143,3.0182,3.0221,3.0256,3.0285,3.029,3.0316,3.0309,3.0359,3.0322,3.039,3.0354,3.0374,3.0383,3.0386,3.0387,3.0344,3.0409,3.0526,3.0537,3.0394,3.0393,3.0391,0,3.0036,3.0105,3.0165,3.0182,3.0221,3.0248,3.0265,3.0293,3.0318,3.0352,3.0368,3.0406,3.0426,3.0456,3.046,3.0433,3.0529,3.0491,3.0532,3.0532,3.0549,3.0548,3.0669,3.0568,3.0568,3.0567,3.0567,0,3.0124,3.0175,3.0193,3.0229,3.0288,3.0293,3.035,3.0364,3.039,3.0428,3.042,3.0456,3.0461,3.0498,3.0501,3.0557,3.0567,3.0571,3.057,3.057,3.0569,3.058,3.0574,3.0571,3.057,3.0569,3.0569,0,3.02,3.0214,3.0279,3.0312,3.0322,3.0363,3.039,3.0425,3.0437,3.0485,3.0497,3.0514,3.0557,3.0566,3.0616,3.0619,3.0685,3.068,3.0675,3.0673,3.0713,3.0708,3.0844,3.0861,3.0751,3.0752,3.0753,0,3.0254,3.0294,3.0333,3.036,3.0379,3.0422,3.0448,3.0456,3.0483,3.0522,3.0552,3.0596,3.063,3.0701,3.0716,3.0755,3.075,3.0795,3.0755,3.0754,3.0748,3.0745,3.0748,3.0801,3.0802,3.0803,3.0804,0,3.0348,3.0354,3.0393,3.0437,3.047,3.0503,3.0535,3.0557,3.0569,3.0601,3.0647,3.0674,3.0728,3.0771,3.0811,3.0827,3.0817,3.0817,3.0828,3.0826,3.0821,3.0823,3.0693,3.0813,3.0812,3.0811,3.0811,3.0811,3.0413,3.0448,3.0482,3.0527,3.0553,3.0584,3.0619,3.0637,3.0676,3.0722,3.0724,3.0774,3.0805,3.0858,3.0877,3.0915,3.0901,3.0917,3.0921,3.0924,3.0927,3.0818,3.0923,3.0923,3.0922,3.0922,3.0922,0,3.0504,3.0527,3.0569,3.0616,3.0652,3.0644,3.068,3.0709,3.0754,3.0785,3.0821,3.0874,3.0917,3.0938,3.098,3.1006,3.1003,3.1017,3.1013,3.1017,3.0939,3.0924,3.1019,3.1019,3.1019,3.1019,3.1019,3.1019,3.0556,3.0616,3.0627,3.07,3.0722,3.0773,3.0794,3.0822,3.0847,3.0908,3.0945,3.0959,3.0986,3.1031,3.1069,3.1074,3.1089,3.1104,3.1107,3.1032,3.1022,3.1013,3.0999,3.1108,3.1108,3.1182,3.1182,3.1183]}]]